Weather History for KPBF - August, 2014

Change the Weather History Date:

Saturday, August 16, 2014

  Actual Average Record
Temperature  
Mean Temperature 78 °F 81 °F  
Max Temperature 93 °F 92 °F 111 °F (1943)
Min Temperature 63 °F 71 °F 57 °F (2004)
Degree Days  
Heating Degree Days 0 0  
Month to date heating degree days 0 0  
Since 1 June heating degree days 1 0  
Since 1 July heating degree days 1 0  
Cooling Degree Days 13 16  
Month to date cooling degree days 209 271  
Year to date cooling degree days 1251 1528  
Since 1 June cooling degree days 988 1221  
Growing Degree Days 28 (Base 50)    
Moisture  
Dew Point 69 °F    
Average Humidity 75    
Maximum Humidity 100    
Minimum Humidity 49    
Precipitation  
Precipitation 0.00 in 0.07 in 3.20 in (1986)
Month to date precipitation 0.31 1.42  
Year to date precipitation 27.96 32.13  
Snow  
Snow 0.00 in 0.00 in - ()
Month to date snowfall 0.0 0.0  
Since 1 June snowfall 0.0 0.0  
Since 1 July snowfall 0.0 0.0  
Snow Depth 0.00 in    
Sea Level Pressure  
Sea Level Pressure 29.95 in    
Wind  
Wind Speed 6 mph (SSW)    
Max Wind Speed 14 mph    
Max Gust Speed 19 mph    
Visibility 9 miles    
Events      
T = Trace of Precipitation, MM = Missing Value Source: NWS Daily Summary

Daily Weather History Graph

Daily Weather History Graph

Search for Another Location

Airport or City:

Trip Planner

Search our weather history database for the weather conditions in past years. The results will help you decide how hot, cold, wet, or windy it might be!

Date:

Astronomy

Aug. 16, 2014 Rise Set
Actual Time 6:29 AM CDT 7:53 PM CDT
Civil Twilight 6:03 AM CDT 8:20 PM CDT
Nautical Twilight 5:31 AM CDT 8:51 PM CDT
Astronomical Twilight 4:58 AM CDT 9:24 PM CDT
Moon 11:57 PM CDT (8/16) 12:56 PM CDT (8/16)
Length of Visible Light 14h 16m
Length of Day
13h 23m
Waning Gibbous, 58% of the Moon is Illuminated
Aug 16
Waning Gibbous
Aug 17
Last Quarter
Aug 25
New
Sep 2
First Quarter
Sep 8
Full

Hourly Weather History & Observations

Time (CDT) Temp. Heat Index Dew Point Humidity Pressure Visibility Wind Dir Wind Speed Gust Speed Precip Events Conditions
12:53 AM 66.9 °F - 64.9 °F 93% 29.97 in 10.0 mi Calm Calm - N/A   Clear
1:53 AM 66.9 °F - 64.0 °F 90% 29.96 in 10.0 mi Calm Calm - N/A   Clear
2:53 AM 66.0 °F - 64.0 °F 93% 29.96 in 8.0 mi Calm Calm - N/A   Clear
3:53 AM 64.9 °F - 63.0 °F 93% 29.96 in 4.0 mi Calm Calm - N/A   Clear
4:53 AM 64.0 °F - 63.0 °F 96% 29.96 in 7.0 mi Calm Calm - N/A   Clear
5:53 AM 63.0 °F - 62.1 °F 97% 29.98 in 10.0 mi Calm Calm - N/A   Clear
6:34 AM 64.0 °F - 63.0 °F 96% 29.99 in 2.5 mi Calm Calm - N/A   Clear
6:44 AM 64.0 °F - 63.0 °F 96% 29.99 in 4.0 mi Calm Calm - N/A   Clear
6:53 AM 64.0 °F - 63.0 °F 96% 29.98 in 7.0 mi Calm Calm - N/A   Clear
7:53 AM 68.0 °F - 64.9 °F 90% 29.99 in 9.0 mi Calm Calm - N/A   Partly Cloudy
8:53 AM 73.0 °F - 66.0 °F 79% 30.00 in 10.0 mi SSW 5.8 mph - N/A   Partly Cloudy
9:53 AM 81.0 °F 83.3 °F 66.9 °F 62% 29.99 in 10.0 mi SSW 8.1 mph - N/A   Scattered Clouds
10:53 AM 84.0 °F 89.0 °F 71.1 °F 65% 29.99 in 10.0 mi Variable 4.6 mph - N/A   Clear
11:53 AM 87.1 °F 93.6 °F 72.0 °F 61% 29.99 in 10.0 mi SW 10.4 mph - N/A   Scattered Clouds
12:53 PM 89.1 °F 96.0 °F 72.0 °F 57% 29.97 in 10.0 mi SW 6.9 mph - N/A   Partly Cloudy
1:53 PM 91.0 °F 98.2 °F 72.0 °F 53% 29.95 in 10.0 mi SSW 9.2 mph - N/A   Partly Cloudy
2:53 PM 91.9 °F 99.5 °F 72.0 °F 52% 29.93 in 10.0 mi SW 9.2 mph - N/A   Partly Cloudy
3:53 PM 93.0 °F 100.7 °F 72.0 °F 50% 29.91 in 10.0 mi South 10.4 mph - N/A   Scattered Clouds
4:53 PM 91.0 °F 97.6 °F 71.1 °F 52% 29.90 in 10.0 mi South 9.2 mph - N/A   Mostly Cloudy
5:53 PM 91.0 °F 99.3 °F 73.0 °F 55% 29.89 in 10.0 mi South 10.4 mph - N/A   Partly Cloudy
6:53 PM 89.1 °F 97.0 °F 73.0 °F 59% 29.88 in 10.0 mi South 8.1 mph - N/A   Clear
7:53 PM 84.9 °F 91.4 °F 73.0 °F 67% 29.88 in 10.0 mi South 8.1 mph - N/A   Clear
8:53 PM 82.0 °F 87.9 °F 73.9 °F 76% 29.91 in 10.0 mi South 6.9 mph - N/A   Clear
9:53 PM 80.1 °F 84.5 °F 73.9 °F 81% 29.92 in 10.0 mi South 5.8 mph - N/A   Clear
10:53 PM 80.1 °F 84.5 °F 73.9 °F 81% 29.91 in 10.0 mi South 6.9 mph - N/A   Clear
11:53 PM 80.1 °F 84.5 °F 73.9 °F 81% 29.91 in 10.0 mi South 9.2 mph - N/A   Clear